This demonstration page uses our WeatherBlox Daily Observations layout. Learn more.

Left ArrowRight Arrow

31.84235, -102.49876

Hourly Observations for August 20, 2015

Temp ( °F °C ) Dew Point ( °F °C ) Humidity (%) Winds ( mph kmh ) Pressure ( in mb ) Visibility ( mi km ) Precip ( " mm )
12:53 am 00:53 Clear 65 18.3 50 10 59 59 ENE 10 17 29.97 1015 10 16 0.00 0.00
1:53 am 01:53 Clear 65 18.3 50 10 59 59 ENE 10 17 29.97 1015 10 16 0.00 0.00
2:53 am 02:53 Clear 63 17.2 50 10 63 63 NE 10 17 29.96 1015 10 16 0.00 0.00
3:53 am 03:53 Mostly Cloudy 64 17.8 49 9.4 58 58 ENE 9 15 29.96 1015 10 16 0.00 0.00
4:53 am 04:53 Clear 64 17.8 49 9.4 58 58 NE 8 13 29.95 1014 10 16 0.00 0.00
5:53 am 05:53 Mostly Cloudy 63 17.2 49 9.4 60 60 ENE 6 9 29.96 1014 10 16 0.00 0.00
6:53 am 06:53 Mostly Cloudy 63 17.2 50 10 63 63 NE 6 9 29.97 1015 10 16 0.00 0.00
7:53 am 07:53 Cloudy 64 17.8 50 10 60 60 NE 5 7 30.00 1016 10 16 0.00 0.00
8:53 am 08:53 Mostly Cloudy 66 18.9 51 10.6 59 59 E 5 7 30.01 1016 10 16 0.00 0.00
9:53 am 09:53 Cloudy 67 19.4 53 11.7 61 61 ESE 7 11 30.00 1016 10 16 0.00 0.00
10:53 am 10:53 Cloudy 71 21.7 55 12.8 57 57 SE 7 11 29.97 1015 10 16 0.00 0.00
11:29 am 11:29 Partly Cloudy 74 23.3 57 13.9 56 56 ESE 8 13 29.94 1014 10 16 0.00 0.00
11:36 am 11:36 Mostly Cloudy 74 23.3 56 13.3 54 54 ESE 9 15 29.94 1014 10 16 0.00 0.00
11:53 am 11:53 Cloudy 75 23.9 58 14.4 55 55 SSW 6 9 29.96 1015 10 16 0.00 0.00
12:38 pm 12:38 Mostly Sunny 77 25 58 14.4 52 52 S 8 13 29.91 1013 10 16 0.00 0.00
12:53 pm 12:53 Mostly Sunny 79 26.1 59 15 50 50 S 9 15 29.93 1014 10 16 0.00 0.00
1:53 pm 13:53 Sunny 82 27.8 60 15.6 47 47 SE 10 17 29.90 1013 10 16 0.00 0.00
2:53 pm 14:53 Sunny 85 29.4 60 15.6 43 43 VRB 3 6 29.87 1011 10 16 0.00 0.00
3:53 pm 15:53 Sunny 88 31.1 60 15.6 39 39 SSE 8 13 29.83 1010 10 16 0.00 0.00
4:53 pm 16:53 Sunny 90 32.2 60 15.6 37 37 VRB 7 11 29.80 1009 10 16 0.00 0.00
5:53 pm 17:53 Sunny 91 32.8 59 15 34 34 SE 8 13 29.78 1008 10 16 0.00 0.00
6:53 pm 18:53 Sunny 91 32.8 59 15 34 34 SSE 12 19 29.77 1008 10 16 0.00 0.00
7:37 pm 19:37 Mostly Sunny 91 32.8 59 15 34 34 SSE 14 22 29.65 1004 10 16 0.00 0.00
7:53 pm 19:53 Mostly Sunny 90 32.2 60 15.6 37 37 SE 14 22 29.77 1008 10 16 0.00 0.00
8:53 pm 20:53 Clear 89 31.7 61 16.1 39 39 SSE 14 22 29.78 1008 10 16 0.00 0.00
9:53 pm 21:53 Mostly Clear 88 31.1 62 16.7 42 42 SSE 15 24 29.80 1009 10 16 0.00 0.00
10:53 pm 22:53 Clear 82 27.8 65 18.3 56 56 S 22 35 29.83 1010 10 16 0.00 0.00
11:53 pm 23:53 Clear 78 25.6 64 17.8 62 62 S 22 35 29.84 1010 10 16 0.00 0.00

Powered by AerisWeather